TimeMDT,TemperatureF,Dew PointF,Humidity,Sea Level PressureIn,VisibilityMPH,Wind Direction,Wind SpeedMPH,Gust SpeedMPH,PrecipitationIn,Events,Conditions,WindDirDegrees,DateUTC
12:53 AM,52.0,42.1,69,29.95,10.0,ESE,3.5,-,N/A,,Clear,120,2013-08-08 06:53:00
1:53 AM,52.0,43.0,71,29.94,10.0,Calm,Calm,-,N/A,,Clear,0,2013-08-08 07:53:00
2:53 AM,55.9,41.0,57,29.91,10.0,ESE,5.8,-,N/A,,Clear,110,2013-08-08 08:53:00
3:53 AM,53.1,43.0,69,29.95,10.0,Calm,Calm,-,N/A,,Clear,0,2013-08-08 09:53:00
4:53 AM,50.0,43.0,77,29.94,10.0,Calm,Calm,-,N/A,,Clear,0,2013-08-08 10:53:00
5:53 AM,46.9,41.0,80,29.96,10.0,Calm,Calm,-,N/A,,Clear,0,2013-08-08 11:53:00
6:53 AM,48.9,43.0,80,29.98,10.0,Calm,Calm,-,N/A,,Clear,0,2013-08-08 12:53:00
7:53 AM,55.0,44.1,67,29.99,10.0,Calm,Calm,-,N/A,,Clear,0,2013-08-08 13:53:00
8:53 AM,57.9,45.0,62,30.01,10.0,West,3.5,-,N/A,,Clear,280,2013-08-08 14:53:00
9:53 AM,62.1,44.1,52,30.03,10.0,Calm,Calm,-,N/A,,Partly Cloudy,0,2013-08-08 15:53:00
10:53 AM,71.1,42.1,35,30.01,10.0,ENE,5.8,-,N/A,,Clear,60,2013-08-08 16:53:00
11:53 AM,73.9,39.9,29,30.00,10.0,Calm,Calm,-,N/A,,Clear,0,2013-08-08 17:53:00
12:53 PM,75.9,39.0,26,29.99,10.0,East,6.9,-,N/A,,Clear,80,2013-08-08 18:53:00
1:53 PM,80.1,37.9,22,29.96,10.0,Variable,5.8,-,N/A,,Clear,0,2013-08-08 19:53:00
2:53 PM,79.0,30.9,17,29.92,10.0,Calm,Calm,-,N/A,,Clear,0,2013-08-08 20:53:00
3:53 PM,79.0,37.9,23,29.92,10.0,South,17.3,21.9,N/A,Thunderstorm,Clear,190,2013-08-08 21:53:00
4:07 PM,78.8,37.4,23,30.13,10.0,South,15.0,-,N/A,,Clear,190,2013-08-08 22:07:00
4:53 PM,75.9,37.9,25,29.96,10.0,SSE,10.4,-,N/A,,Clear,150,2013-08-08 22:53:00
5:53 PM,73.9,39.9,29,29.98,10.0,East,24.2,36.8,N/A,,Clear,100,2013-08-08 23:53:00
6:53 PM,70.0,39.9,33,30.01,10.0,ESE,9.2,19.6,N/A,,Clear,110,2013-08-09 00:53:00
7:53 PM,68.0,42.1,39,30.01,10.0,ENE,9.2,-,N/A,,Clear,60,2013-08-09 01:53:00
8:53 PM,66.0,42.1,42,30.02,10.0,ENE,3.5,-,N/A,,Mostly Cloudy,60,2013-08-09 02:53:00
9:53 PM,64.0,43.0,46,30.04,10.0,Calm,Calm,-,N/A,,Clear,0,2013-08-09 03:53:00
10:53 PM,64.0,42.1,45,30.00,10.0,ENE,4.6,-,N/A,,Scattered Clouds,70,2013-08-09 04:53:00
11:53 PM,57.0,44.1,62,30.02,10.0,Calm,Calm,-,N/A,,Clear,0,2013-08-09 05:53:00